When you browse on this site, cookies collect data to enhance your experience and personalize the content and advertising you see.
Visit our Privacy Policy to learn more. By continuing to use the site, you agree to this use of cookies and data.

Hourly Weather Salzburg

Today, 2 July, Thursday

Time Temperature Precipitation Wind Pressure Humidity
00:00 +9°C° 0 mm 2 mps 625 mmHg 87%
01:00 +9°C° 0 mm 1 mps 625 mmHg 81%
02:00 +9°C° 0 mm 1 mps 625 mmHg 81%
03:00 +9°C° 0 mm 1 mps 625 mmHg 81%
04:00 +9°C° 0 mm 1 mps 625 mmHg 80%
05:00 +11°C° 0 mm 1 mps 625 mmHg 78%
06:00 +12°C° 0 mm 1 mps 626 mmHg 76%
07:00 +13°C° 0 mm 0 mps 627 mmHg 74%
08:00 +16°C° 0 mm 1 mps 628 mmHg 67%
09:00 +19°C° 0 mm 1 mps 628 mmHg 60%
10:00 +20°C° 0 mm 1 mps 629 mmHg 53%
11:00 +20°C° 0.4 mm 1 mps 629 mmHg 57%
12:00 +20°C° 0.4 mm 1 mps 628 mmHg 62%
13:00 +20°C° 0.4 mm 1 mps 628 mmHg 66%
14:00 +19°C° 1.5 mm 1 mps 628 mmHg 74%
15:00 +18°C° 1.5 mm 1 mps 627 mmHg 82%
16:00 +16°C° 1.5 mm 1 mps 627 mmHg 89%
17:00 +15°C° 2.2 mm 1 mps 626 mmHg 92%
18:00 +14°C° 2.2 mm 1 mps 626 mmHg 95%
19:00 +13°C° 2.2 mm 1 mps 626 mmHg 97%
20:00 +12°C° 3.3 mm 1 mps 626 mmHg 98%
21:00 +12°C° 3.3 mm 1 mps 626 mmHg 98%
22:00 +11°C° 3.3 mm 1 mps 627 mmHg 98%
23:00 +11°C° 4.3 mm 1 mps 627 mmHg 98%

Tomorrow, 3 July, Friday

Time Temperature Precipitation Wind Pressure Humidity
00:00 +11°C° 4.3 mm 1 mps 627 mmHg 99%
01:00 +10°C° 4.3 mm 1 mps 627 mmHg 99%
02:00 +10°C° 4.3 mm 1 mps 627 mmHg 99%
03:00 +10°C° 4.3 mm 1 mps 627 mmHg 99%
04:00 +9°C° 4.3 mm 1 mps 627 mmHg 99%
05:00 +9°C° 0.9 mm 1 mps 627 mmHg 98%
06:00 +9°C° 0.9 mm 1 mps 627 mmHg 98%
07:00 +9°C° 0.9 mm 1 mps 627 mmHg 97%
08:00 +11°C° 0.3 mm 1 mps 628 mmHg 92%
09:00 +12°C° 0.3 mm 1 mps 628 mmHg 87%
10:00 +13°C° 0.3 mm 1 mps 629 mmHg 82%
11:00 +13°C° 0.4 mm 1 mps 629 mmHg 82%
12:00 +13°C° 0.4 mm 1 mps 629 mmHg 81%
13:00 +13°C° 0.4 mm 1 mps 629 mmHg 81%
14:00 +13°C° 0.5 mm 1 mps 629 mmHg 83%
15:00 +13°C° 0.5 mm 1 mps 629 mmHg 85%
16:00 +13°C° 0.5 mm 1 mps 629 mmHg 87%
17:00 +13°C° 0.4 mm 1 mps 628 mmHg 89%
18:00 +12°C° 0.4 mm 1 mps 628 mmHg 92%
19:00 +12°C° 0.4 mm 1 mps 628 mmHg 95%
20:00 +11°C° 0.1 mm 1 mps 628 mmHg 95%
21:00 +10°C° 0.1 mm 1 mps 628 mmHg 96%
22:00 +8°C° 0.1 mm 0 mps 628 mmHg 96%
23:00 +8°C° 0 mm 0 mps 628 mmHg 96%

Day after tomorrow, 4 July, Saturday

Time Temperature Precipitation Wind Pressure Humidity
00:00 +7°C° 0 mm 0 mps 628 mmHg 96%
01:00 +7°C° 0 mm 0 mps 628 mmHg 96%
02:00 +7°C° 0 mm 0 mps 628 mmHg 96%
03:00 +7°C° 0 mm 0 mps 628 mmHg 96%
04:00 +6°C° 0 mm 0 mps 628 mmHg 97%
05:00 +7°C° 0 mm 0 mps 629 mmHg 95%
06:00 +8°C° 0 mm 0 mps 629 mmHg 93%
07:00 +10°C° 0 mm 0 mps 630 mmHg 91%
08:00 +12°C° 0.1 mm 1 mps 630 mmHg 84%
09:00 +13°C° 0.1 mm 1 mps 631 mmHg 77%
10:00 +14°C° 0.1 mm 1 mps 631 mmHg 70%
11:00 +15°C° 0.1 mm 1 mps 631 mmHg 67%
12:00 +15°C° 0.1 mm 1 mps 631 mmHg 64%
13:00 +16°C° 0.1 mm 2 mps 631 mmHg 62%
14:00 +16°C° 0.1 mm 2 mps 631 mmHg 61%
15:00 +16°C° 0.1 mm 2 mps 631 mmHg 60%
16:00 +16°C° 0.1 mm 2 mps 631 mmHg 59%
17:00 +15°C° 0 mm 1 mps 631 mmHg 66%
18:00 +14°C° 0 mm 1 mps 630 mmHg 74%
19:00 +13°C° 0 mm 1 mps 630 mmHg 81%
20:00 +12°C° 0 mm 1 mps 630 mmHg 85%
21:00 +10°C° 0 mm 1 mps 629 mmHg 89%
22:00 +8°C° 0 mm 1 mps 629 mmHg 93%
23:00 +8°C° 0 mm 1 mps 629 mmHg 93%

5 July, Sunday

Time Temperature Precipitation Wind Pressure Humidity
00:00 +8°C° 0 mm 1 mps 629 mmHg 93%
01:00 +8°C° 0 mm 1 mps 629 mmHg 93%
02:00 +7°C° 0 mm 1 mps 629 mmHg 93%
03:00 +7°C° 0 mm 1 mps 629 mmHg 93%
04:00 +7°C° 0 mm 1 mps 629 mmHg 93%
05:00 +9°C° 0 mm 1 mps 629 mmHg 88%
06:00 +11°C° 0 mm 1 mps 630 mmHg 83%
07:00 +12°C° 0 mm 0 mps 631 mmHg 78%
08:00 +15°C° 0 mm 1 mps 631 mmHg 69%
09:00 +18°C° 0 mm 1 mps 632 mmHg 60%
10:00 +20°C° 0 mm 1 mps 633 mmHg 52%
11:00 +20°C° 0 mm 1 mps 632 mmHg 51%
12:00 +20°C° 0 mm 2 mps 632 mmHg 50%
13:00 +20°C° 0 mm 2 mps 632 mmHg 49%
14:00 +20°C° 0 mm 2 mps 632 mmHg 51%
15:00 +20°C° 0 mm 2 mps 632 mmHg 53%
16:00 +19°C° 0 mm 2 mps 631 mmHg 56%
17:00 +18°C° 0 mm 2 mps 631 mmHg 65%
18:00 +18°C° 0 mm 1 mps 631 mmHg 74%
19:00 +16°C° 0 mm 1 mps 630 mmHg 83%
20:00 +14°C° 0 mm 1 mps 630 mmHg 87%
21:00 +13°C° 0 mm 1 mps 630 mmHg 91%
22:00 +10°C° 0 mm 0 mps 629 mmHg 95%
23:00 +11°C° 0 mm 1 mps 629 mmHg 95%

6 July, Monday

Time Temperature Precipitation Wind Pressure Humidity
00:00 +10°C° 0 mm 1 mps 629 mmHg 95%
01:00 +10°C° 0 mm 1 mps 629 mmHg 95%
02:00 +10°C° 0 mm 1 mps 629 mmHg 95%
03:00 +10°C° 0 mm 1 mps 628 mmHg 95%
04:00 +9°C° 0 mm 1 mps 628 mmHg 95%
05:00 +10°C° 0 mm 0 mps 629 mmHg 91%
06:00 +12°C° 0 mm 0 mps 629 mmHg 88%
07:00 +13°C° 0 mm 0 mps 630 mmHg 84%
08:00 +16°C° 0 mm 0 mps 630 mmHg 75%
09:00 +20°C° 0 mm 1 mps 631 mmHg 66%
10:00 +22°C° 0 mm 1 mps 631 mmHg 57%
11:00 +23°C° 0 mm 1 mps 631 mmHg 55%
12:00 +23°C° 0 mm 1 mps 631 mmHg 53%
13:00 +24°C° 0 mm 2 mps 631 mmHg 51%
14:00 +23°C° 0.1 mm 2 mps 630 mmHg 58%
15:00 +21°C° 0.1 mm 2 mps 629 mmHg 65%
16:00 +20°C° 0.1 mm 2 mps 629 mmHg 72%
17:00 +18°C° 0.6 mm 2 mps 628 mmHg 80%
18:00 +17°C° 0.6 mm 2 mps 628 mmHg 88%
19:00 +15°C° 0.6 mm 1 mps 627 mmHg 96%
20:00 +15°C° 1.4 mm 1 mps 628 mmHg 97%
21:00 +14°C° 1.4 mm 1 mps 628 mmHg 98%
22:00 +14°C° 1.4 mm 1 mps 628 mmHg 99%
23:00 +13°C° 2.3 mm 1 mps 628 mmHg 99%

7 July, Tuesday

Time Temperature Precipitation Wind Pressure Humidity
00:00 +13°C° 2.3 mm 1 mps 627 mmHg 99%
01:00 +12°C° 2.3 mm 1 mps 627 mmHg 99%
02:00 +12°C° 1.5 mm 1 mps 627 mmHg 99%
03:00 +11°C° 1.5 mm 1 mps 627 mmHg 99%
04:00 +11°C° 1.5 mm 1 mps 626 mmHg 99%
05:00 +10°C° 3.3 mm 1 mps 626 mmHg 99%
06:00 +10°C° 3.3 mm 1 mps 626 mmHg 99%
07:00 +10°C° 3.3 mm 1 mps 626 mmHg 99%
08:00 +9°C° 1.3 mm 1 mps 626 mmHg 99%
09:00 +8°C° 1.3 mm 2 mps 626 mmHg 99%
10:00 +8°C° 1.3 mm 2 mps 627 mmHg 99%
11:00 +8°C° 0.2 mm 2 mps 626 mmHg 98%
12:00 +8°C° 0.2 mm 2 mps 626 mmHg 98%
13:00 +7°C° 0.2 mm 2 mps 626 mmHg 98%
14:00 +7°C° 1 mm 2 mps 626 mmHg 98%
15:00 +6°C° 1 mm 2 mps 626 mmHg 98%
16:00 +6°C° 1 mm 2 mps 626 mmHg 98%
17:00 +5°C° 2.4 mm 2 mps 627 mmHg 98%
18:00 +6°C° 2.4 mm 1 mps 627 mmHg 98%
19:00 +5°C° 2.4 mm 1 mps 627 mmHg 97%
20:00 +5°C° 1.5 mm 1 mps 627 mmHg 97%
21:00 +4°C° 1.5 mm 1 mps 628 mmHg 97%
22:00 +4°C° 1.5 mm 1 mps 628 mmHg 97%
23:00 +3°C° 0.2 mm 1 mps 628 mmHg 96%
Show more